Volver al catálogo

COSMOS 1814

ActivoMilitarLEO
NORAD 17303·PAYLOAD·🇷🇺 Russia

Lanzado Jan 21, 1987 desde Plesetsk Cosmodrome

Loading…

Próximos Pases (próximas 24 horas)

TLE

ActualizadoSource: Space-Track

Época: Sep 14, 2026, 22:51 UTC

1 17303U 87006A   26257.95234795  .00000064  00000-0  30741-4 0  9990
2 17303  74.0535  93.0264 0024494 171.7591 188.3969 14.36025085 75121

Sigue COSMOS 1814 en tiempo real con AllMySat

Download on the App Store